Location: ???????
(55.4362°N, 38.1183°E)
Time: 12:36:00
(UTC+00:00)

NOAA 15 - Visible Passes

Search period start: 06 December 2021 00:00
Search period end: 16 December 2021 00:00
Orbit: 797 x 813 km, 98.7° (Epoch: 06 December)

Date Brightness Start Highest point End Pass type
(mag) Time Alt. Az. Time Alt. Az. Time Alt. Az.
06 Dec 7.7 03:34:57 10° ENE 03:36:35 11° E 03:38:11 10° E visible
06 Dec 5.0 15:00:40 10° SE 15:05:29 38° ENE 15:10:20 10° N visible
06 Dec 5.5 16:40:07 10° S 16:45:13 47° W 16:50:20 10° NNW visible
07 Dec 6.2 04:47:14 10° NNE 04:52:10 38° E 04:57:02 10° SSE visible
07 Dec 5.5 14:36:09 10° ESE 14:40:30 27° NE 14:44:52 10° N visible
07 Dec 4.8 16:14:37 10° S 16:19:54 71° WSW 16:25:11 10° NNW visible
07 Dec 7.3 17:57:51 10° WSW 18:00:39 14° W 18:03:27 10° NW visible
08 Dec 6.9 04:22:19 10° NE 04:26:42 26° E 04:31:02 10° SSE visible
08 Dec 5.8 14:11:54 10° E 14:15:35 20° NE 14:19:17 10° N visible
08 Dec 4.4 15:49:22 10° SSE 15:54:40 79° ENE 15:59:57 10° NNW visible
08 Dec 6.8 17:31:02 10° SW 17:35:03 22° W 17:39:05 10° NW visible
09 Dec 7.4 03:57:43 10° NE 04:01:09 17° E 04:04:33 10° SE visible
09 Dec 6.2 13:48:00 10° ENE 13:50:45 15° NE 13:53:30 10° NNE visible
09 Dec 4.6 15:24:23 10° SE 15:29:30 53° ENE 15:34:38 10° N visible
09 Dec 6.2 17:04:51 10° SSW 17:09:33 32° W 17:14:17 10° NNW visible
10 Dec 7.7 03:34:02 10° ENE 03:35:29 11° E 03:36:56 10° E visible
10 Dec 5.1 14:59:38 10° SE 15:04:27 37° ENE 15:09:15 10° N visible
10 Dec 5.4 16:39:03 10° S 16:44:09 48° W 16:49:16 10° NNW visible
11 Dec 6.2 04:46:11 10° NNE 04:51:05 38° E 04:55:57 10° SSE visible
11 Dec 5.5 14:35:07 10° ESE 14:39:27 27° NE 14:43:46 10° N visible
11 Dec 4.7 16:13:34 10° S 16:18:50 73° WSW 16:24:07 10° NNW visible
11 Dec 7.3 17:56:43 10° WSW 17:59:34 15° W 18:02:26 10° NW visible
12 Dec 7.0 04:21:17 10° NE 04:25:38 25° E 04:29:55 10° SSE visible
12 Dec 5.8 14:10:53 10° E 14:14:32 19° NE 14:18:11 10° N visible
12 Dec 4.4 15:48:20 10° SSE 15:53:36 77° ENE 15:58:53 10° NNW visible
12 Dec 6.8 17:29:55 10° SW 17:33:58 22° W 17:38:02 10° NW visible
13 Dec 7.4 03:56:41 10° NE 04:00:04 17° E 04:03:25 10° SE visible
13 Dec 6.2 13:47:01 10° ENE 13:49:42 14° NE 13:52:24 10° NNE visible
13 Dec 4.7 15:23:21 10° SE 15:28:27 53° ENE 15:33:33 10° N visible
13 Dec 6.1 17:03:46 10° SSW 17:08:29 33° W 17:13:12 10° NNW visible
14 Dec 7.8 03:33:07 10° ENE 03:34:24 11° E 03:35:41 10° E visible
14 Dec 5.1 14:58:36 10° SE 15:03:23 36° ENE 15:08:10 10° N visible
14 Dec 5.4 16:37:58 10° S 16:43:05 49° W 16:48:12 10° NNW visible
15 Dec 6.3 04:45:08 10° NNE 04:50:00 37° E 04:54:51 10° SSE visible
15 Dec 5.5 14:34:06 10° ESE 14:38:24 26° NE 14:42:41 10° N visible
15 Dec 4.7 16:12:30 10° S 16:17:46 74° WSW 16:23:03 10° NNW visible
15 Dec 7.3 17:55:34 10° WSW 17:58:29 15° W 18:01:25 10° NW visible
